Overview Statistics Trail Chart Weather Telemetry Raw packets
 

This is the latest recevied weather packets stored in our database for station/object VK4TW-13. If no packets are shown the sender has not sent any weather packets the latest 10 day(s).

<< 55 56 57 58 59 60 61 >>
Time Temp. Humidity Pressure Rain* Wind** Luminosity Snow
1787975964 25° C 94% 1022.8 hPa 0 mm - - -
1787975783 25° C 93% 1022.9 hPa 0 mm - - -
1787975197 25° C 96% 1022.9 hPa 0 mm - - -
1787974947 25° C 96% 1023.1 hPa 0 mm - - -
1787974766 25° C 96% 1023.1 hPa 0 mm - - -
1787974417 25° C 95% 1023.2 hPa 0 mm - - -
1787973816 25° C 95% 1023.2 hPa 0 mm - - -
1787973219 25° C 94% 1023.2 hPa 0 mm - - -
1787973011 25.56° C 96% 1023.3 hPa 0 mm - - -
1787972473 26.11° C 94% 1023.5 hPa 0 mm - - -
1787971873 25.56° C 97% 1023.6 hPa 0 mm - - -
1787971515 25.56° C 98% 1023.7 hPa 0 mm - - -
1787971001 25.56° C 100% 1023.8 hPa 0 mm - - -
1787970401 25.56° C 100% 1023.9 hPa 0 mm - - -
1787970163 25.56° C 100% 1024.1 hPa 0 mm - - -
1787969743 25.56° C 100% 1024.2 hPa 0 mm - - -
1787969477 26.11° C 100% 1024.3 hPa 0 mm - - -
1787969106 26.67° C 100% 1024.4 hPa 0 mm - - -
1787968505 26.67° C 100% 1024.4 hPa 0 mm - - -
1787967905 26.11° C 100% 1024.7 hPa 0 mm - - -
1787967303 26.11° C 100% 1024.7 hPa 0 mm - - -
1787966702 26.11° C 100% 1024.8 hPa 0 mm - - -
1787966396 26.11° C 100% 1024.9 hPa 0 mm - - -
1787965890 26.11° C 100% 1025 hPa 0 mm - - -
1787965289 26.11° C 100% 1025.2 hPa 0 mm - - -

* Rain since midnight (hover to see other rain measurements)
** Current wind speed in m/s (hover to see current wind gust speed)